This is the latest recevied weather packets stored in our database for station/object IW3HBX-3. If no packets are shown the sender has not sent any weather packets the latest 10 day(s).
| Time | Temp. | Humidity | Pressure | Rain* | Wind** | Luminosity | Snow |
|---|---|---|---|---|---|---|---|
| 1777680314 | 10.56° C | 62% | 1026.7 hPa | 0 mm | - | 0 W/m² | - |
| 1777680014 | 11.11° C | 64% | 1026.8 hPa | 0 mm | - | 0 W/m² | - |
| 1777679714 | 11.67° C | 60% | 1026.8 hPa | 0 mm | - | 0 W/m² | - |
| 1777679414 | 11.11° C | 62% | 1026.8 hPa | 0 mm | - | 0 W/m² | - |
| 1777679114 | 11.11° C | 63% | 1026.9 hPa | 0 mm | - | 0 W/m² | - |
| 1777678813 | 11.11° C | 63% | 1026.8 hPa | 0 mm | - | 0 W/m² | - |
| 1777678513 | 10.56° C | 63% | 1026.7 hPa | 0 mm | - | 0 W/m² | - |
| 1777678213 | 10.56° C | 65% | 1026.8 hPa | 0 mm | - | 0 W/m² | - |
| 1777677913 | 10.56° C | 62% | 1026.7 hPa | 0 mm | - | 0 W/m² | - |
| 1777677613 | 11.11° C | 62% | 1026.7 hPa | 0 mm | - | 0 W/m² | - |
| 1777677313 | 11.11° C | 61% | 1026.7 hPa | 0 mm | - | 0 W/m² | - |
| 1777677013 | 11.67° C | 61% | 1026.8 hPa | 0 mm | - | 0 W/m² | - |
| 1777676713 | 11.67° C | 62% | 1026.8 hPa | 0 mm | - | 0 W/m² | - |
| 1777676413 | 11.67° C | 61% | 1026.7 hPa | 0 mm | - | 0 W/m² | - |
| 1777676345 | 11.67° C | 58% | 1026.7 hPa | 0 mm | - | 0 W/m² | - |
| 1777676113 | 11.67° C | 59% | 1026.7 hPa | 0 mm | - | 0 W/m² | - |
| 1777675813 | 11.67° C | 60% | 1026.8 hPa | 0 mm | - | 0 W/m² | - |
| 1777675513 | 11.67° C | 61% | 1026.8 hPa | 0 mm | - | 0 W/m² | - |
| 1777675213 | 11.67° C | 59% | 1026.8 hPa | 0 mm | - | 0 W/m² | - |
| 1777674912 | 11.67° C | 59% | 1026.8 hPa | 0 mm | - | 0 W/m² | - |
| 1777674613 | 11.67° C | 58% | 1026.7 hPa | 0 mm | - | 0 W/m² | - |
| 1777674316 | 11.67° C | 58% | 1026.8 hPa | 0 mm | - | 0 W/m² | - |
| 1777674013 | 11.67° C | 59% | 1026.7 hPa | 0 mm | - | 0 W/m² | - |
| 1777673712 | 12.78° C | 57% | 1026.6 hPa | 0 mm | - | 0 W/m² | - |
| 1777673412 | 13.33° C | 56% | 1026.6 hPa | 0 mm | - | 0 W/m² | - |
* Rain latest hour (hover to see other rain measurements)
** Current wind speed in m/s (hover to see current wind gust speed)